Regional Weather Roundup
Issued by NWS Charleston, SC

Current Version | Previous Version | Graphics & Text | Print | Product List | Glossary On
Versions: 1 2 3 4 5 6 7 8 9 10 11 12 13 14 15 16 17 18 19 20 21 22 23 24 25 26 27 28 29 30 31 32 33 34 35 36 37 38 39 40 41 42 43 44 45 46 47 48 49 50
000
ASUS42 KCHS 291711
RWRCHS

REGIONAL WEATHER ROUNDUP
NATIONAL WEATHER SERVICE CHARLESTON SC
100 PM EDT SUN MAR 29 2015

NOTE: "FAIR" INDICATES FEW OR NO CLOUDS BELOW 12,000 FEET WITH NO
SIGNIFICANT WEATHER AND/OR OBSTRUCTIONS TO VISIBILITY.

NOT ALL STATIONS ARE QUALITY CONTROLLED BY THE NATIONAL
WEATHER SERVICE. USE DATA WITH CAUTION...ESPECIALLY
DEWPOINT OBSERVATIONS.

SCZ027-030-031-034>040-042>050-291800-
...SOUTHEAST SOUTH CAROLINA...

CITY           SKY/WX    TMP DP  RH WIND       PRES   REMARKS
N CHARLESTON   SUNNY     51  13  21 VRB5      30.43F
WATERFRONT PRK   N/A     50 N/A N/A N3          N/A
MOUNT PLEASANT FAIR      50  16  25 CALM      30.43F
PINOPOLIS        N/A     46  18  31 N5        30.38F
MONCKS CORNER  FAIR      50  19  29 N3        30.43F
SUMMERVILLE    FAIR      50  19  29 N10       30.45F
BEAUFORT MCAS  SUNNY     52  18  26 VRB3      30.44F
BEAUFORT ARPT  FAIR      52  27  37 E8        30.44F
HILTON HEAD IS SUNNY     52  23  32 E7        30.44F
WALTERBORO     SUNNY     50  12  22 CALM      30.45F
ALLENDALE      FAIR      50  16  25 VRB5      30.43F

...SOUTHERN MIDLANDS AND PEE DEE...

CITY           SKY/WX    TMP DP  RH WIND       PRES   REMARKS
GEORGETOWN     NOT AVBL
KINGSTREE      NOT AVBL
ORANGEBURG     SUNNY     49  12  22 CALM      30.44F
BARNWELL       FAIR      52  18  25 W3        30.44F
AIKEN          FAIR      48  14  25 S7        30.45F
MANNING        HVY RAIN N/A N/A N/A CALM      30.44F
COLUMBIA       SUNNY     49  14  24 VRB3      30.43F
SUMTER         SUNNY     48   8  20 E6        30.41F
FLORENCE       SUNNY     48   9  20 VRB5      30.43F
MYRTLE BEACH   SUNNY     46  16  29 N9        30.46F
N MYRTLE BEACH SUNNY     47  13  25 N10       30.42F

$$

GAZ063-065-086>088-099>101-113>116-118-119-134>141-150-291800-
...SOUTHEAST GEORGIA...

CITY           SKY/WX    TMP DP  RH WIND       PRES   REMARKS
SAVANNAH ARPT  MOSUNNY   55  18  23 E12       30.43F
HUNTER AAF     SUNNY     55  23  29 E12       30.40F
FORT STEWART   SUNNY     55  23  29 E7        30.41F
STATESBORO     SUNNY     52  21  29 SE3       30.43F
SYLVANIA       SUNNY     52  24  33 N3        30.44F
CLAXTON        FAIR      54  27  35 NE5       30.43F

...CSRA...CENTRAL AND FAR SOUTHEAST GEORGIA...

CITY           SKY/WX    TMP DP  RH WIND       PRES   REMARKS
THOMSON        SUNNY     52  21  29 CALM      30.47F
AUGUSTA-BUSH   SUNNY     51  14  22 CALM      30.44F
AUGUSTA-DANIEL SUNNY     50  12  21 CALM      30.44F
SWAINSBORO     FAIR      55 -22   4 E8        30.42F
VIDALIA        SUNNY     54  28  37 N6        30.42F
EASTMAN        FAIR      56  20  24 CALM      30.45S
HAZLEHURST     FAIR      55  23  28 SE5       30.42S
ALMA           SUNNY     56  23  27 VRB6      30.42F
WAYCROSS       SUNNY     60  28  29 E5        30.41F
JESUP          FAIR      59  30  33 NE7       30.42F
BAXLEY         FAIR      57  23  26 NE8       30.42F
BRUNSWICK      SUNNY     57  34  41 E13G20    30.44S
SAINT SIMONS   MOSUNNY   56  39  53 NE14      30.43S

$$

SCZ027-028-034-036>038-045-046-048>050-GAZ119-141-291800-
...LAKE AND SUPPLEMENTAL COASTAL OBSERVATIONS...

STATION/POSITION TIME  TEMP    WIND        PRES    WAVE   SWELL
                       AIR SEA DIR/SP/G            HT/PER HT/PER/DIR
                 (UTC) (F)     (DEG/KT/KT) (MB)    (FT/S) (FT/S/D)
UPR LAKE MARION  NOT AVBL
WINYAH BAY       1545   42      70/  7     1030.0
LAKE MURRAY      1600   44     160/  6/  8 1030.1F
ACE BASIN NERRS  NOT AVBL
FORT PULASKI     1600   47 60   40/ 13/ 16 1031.6R
SAPELO ISLAND    1600   54      50/ 13     1030.0S

$$

ANZ835-935-AMZ111-154-330-350-352-354-370-450-454-472-291800-
...C-MAN AND BUOY OBSERVATIONS...

STATION/POSITION TIME  TEMP    WIND        PRES    WAVE   SWELL
                       AIR SEA DIR/SP/G            HT/PER HT/PER/DIR
                 (UTC) (F)     (DEG/KT/KT) (MB)    (FT/S) (FT/S/D)
BUOY 41004       1650   46 68   20/ 16/ 19 1030.2S   5/ 7   2/ 8
BUOY 41008       1650   51 61   40/ 16/ 17 1030.1R   6/ 6   2/ 60/ 9
FOLLY BEACH CMAN 1700   45      90/  6/  7 1030.8F
CAPERS NEARSHORE NOT AVBL
FRIPP NEARSHORE  1600   47      50/ 16/ 19 1030.0F


STATION/POSITION TIME  TEMP    WIND        PRES    WAVE   SWELL
                       AIR SEA DIR/SP/G            HT/PER HT/PER/DIR
                 (UTC) (F)     (DEG/KT/KT) (MB)    (FT/S) (FT/S/D)
5E ST. MARYS GA  1621      60                N/A     3/ 4
FRYING PAN BUOY  1650   42 64   10/ 14/ 17 1031.2F   4/ 6   2/ 60/ 7
BUOY 41025       NOT AVBL
CAPE LOOKOUT NC  1700   41     330/ 10/ 12 1029.5F
BUOY 41002       1650   54 68  330/ 23/ 29 1026.4R   9/ 8   3/ 20/11
BUOY 41010       1620   64 76  340/ 14/ 19 1026.8R
ST AUGUSTINE FL  1700   55 61   10/ 12/ 13 1030.3S


$$


USA.gov is the U.S. government's official web portal to all federal, state and local government web resources and services.